Location: Fontevrault
(47.1823°N, 0.0493°E)
Time: 13:20:11
(UTC+00:00)

Cosmos 2322 - Pass Details

Date: 16 June 2021
Orbit: 839 x 856 km, 71.0° (Epoch: 04 August)

Event Time Altitude Azimuth Distance (km) Brightness Sun altitude
Exits shadow 22:03:13 15° 188° (S) 2,108 5.3 -14.6°
Maximum altitude 22:07:48 60° 111° (ESE) 959 3.7 -15.0°
Drops below altitude 10° 22:13:21 10° 33° (NNE) 2,467 6.5 -15.4°
Sets 22:15:50 0° 30° (NNE) 3,408 7.4 -15.6°
